DECAYED

COSMOS 2251 DEB, 34429 (Decayed)

Orbit data source: Space-Track

COSMOS 2251 DEB, 34429 was space debris in LEO originally from a launch on Wed, 16 Jun 1993 UTC launched from the Plesetsk Missile And Space Complex (PKMTR). The debris from Iridium 33, an American commercial communications satellite, has been tracked extensively since its accidental collision with the defunct Russian satellite Cosmos 2251 in 2009. This event, occurring at high speed in low Earth orbit (LEO), generated thousands of pieces of space debris, significantly increasing the risk of further collisions. The Iridium 33 debris cloud has impacted space traffic management and orbital debris mitigation strategies, making it a subject of ongoing study in space situational awareness.

Loading next visibility...
Identifier
34429, 1993-036RW
Orbit
Decayed
Country
Flag of CISCIS
Related business
Manufacturer
Unknown
Mission
Decayed spacecraft
Bus & Motor
Unknown
Mass
Unknown
Launch date (UTC)
1993-06-16 (33 years ago)
Launch vehicle
Unknown
Launch site
Plesetsk Missile And Space Complex (PKMTR)
Object type
Payload
Rocket body
Debris
Shape & HBR
Unknown shape, 0.1 m
Radar Cross Section
Small (<0.1 m²)

Expand to show TLE details & history
Last TLE update: 8 months ago

TLE from 8 months ago
0 COSMOS 2251 DEB
1 34429U 93036RW  26026.55334725  .05591106  71878-1  87171-2 0  9998
2 34429  73.9443  67.8356 0007877 322.0559  38.0128 16.08963014901475
Epoch: 2026-01-26T13:16Z
TLE epoch observation values (Epoch: 2026-01-26T13:16:49.202Z)
Latitude
-0.00003°
Longitude
102.78313°
Altitude
248.388 km
Speed
7.76 km/s
True Right ascension
04h 31m 20s
True Declination
0° 00' 00"
Sunlit
Object was in full shadow at epoch
Visualization orbit readout
Latitude
Unknown
Longitude
Unknown
Altitude
Unknown
Speed
Unknown
Apparent Right ascension
Unknown
Apparent Declination
Unknown
Sunlit
N/A
Visualization observer readout
Local Sidereal Time
20:50:52
Azimuth
Unknown
Elevation
Unknown
Doppler factor
Unknown
Orbital elements
Apogee altitude
252.353 km
Perigee altitude
241.916 km
Semi-major axis
6,625.271 km
Eccentricity
0.00079
Inclination
73.9443°
RAAN
67.8356°
Arg. of periapsis
322.0559°
True anomaly
38.06843°
Mean anomaly
38.0128°
Eccentric anomaly
38.04061°
Mean motion
4.02474 °/min
Orbital period
89.45 mins
BSTAR
0.0087171

Documentation

Showing up to 5 results
|